When you browse on this site, cookies collect data to enhance your experience and personalize the content and advertising you see.
Visit our Privacy Policy to learn more. By continuing to use the site, you agree to this use of cookies and data.
  • In Hungary
  • List of Countries
  • For 7 days
  • Water Temperature
  • Satellite Maps
  • Weather Map
  • News
  • Weather Widgets
  • user-avatar
    Login

    Hourly Weather Bay Point

    Today, 26 June, Wednesday

    Time Temperature Precipitation Wind Pressure Humidity
    00:00 +16°C° 0 mm 3 mps 756 mmHg 59%
    01:00 +16°C° 0 mm 3 mps 756 mmHg 61%
    02:00 +14°C° 0 mm 3 mps 756 mmHg 63%
    03:00 +14°C° 0 mm 3 mps 756 mmHg 65%
    04:00 +14°C° 0 mm 3 mps 756 mmHg 67%
    05:00 +16°C° 0 mm 3 mps 756 mmHg 63%
    06:00 +17°C° 0 mm 3 mps 756 mmHg 59%
    07:00 +18°C° 0 mm 3 mps 756 mmHg 56%
    08:00 +20°C° 0 mm 4 mps 756 mmHg 51%
    09:00 +22°C° 0 mm 4 mps 757 mmHg 46%
    10:00 +25°C° 0 mm 4 mps 757 mmHg 41%
    11:00 +25°C° 0 mm 5 mps 757 mmHg 40%
    12:00 +26°C° 0 mm 5 mps 757 mmHg 39%
    13:00 +27°C° 0 mm 6 mps 757 mmHg 38%
    14:00 +26°C° 0 mm 6 mps 757 mmHg 39%
    15:00 +24°C° 0 mm 6 mps 757 mmHg 39%
    16:00 +24°C° 0 mm 6 mps 757 mmHg 40%
    17:00 +22°C° 0 mm 6 mps 757 mmHg 44%
    18:00 +20°C° 0 mm 5 mps 758 mmHg 49%
    19:00 +19°C° 0 mm 4 mps 758 mmHg 54%
    20:00 +17°C° 0 mm 4 mps 758 mmHg 61%
    21:00 +16°C° 0 mm 3 mps 758 mmHg 69%
    22:00 +13°C° 0 mm 3 mps 759 mmHg 76%
    23:00 +13°C° 0 mm 3 mps 759 mmHg 79%

    Tomorrow, 27 June, Thursday

    Time Temperature Precipitation Wind Pressure Humidity
    00:00 +13°C° 0 mm 3 mps 759 mmHg 81%
    01:00 +13°C° 0 mm 3 mps 759 mmHg 84%
    02:00 +13°C° 0 mm 3 mps 759 mmHg 85%
    03:00 +13°C° 0 mm 3 mps 759 mmHg 86%
    04:00 +13°C° 0 mm 2 mps 759 mmHg 87%
    05:00 +14°C° 0 mm 3 mps 759 mmHg 81%
    06:00 +16°C° 0 mm 3 mps 759 mmHg 76%
    07:00 +17°C° 0 mm 3 mps 759 mmHg 71%
    08:00 +18°C° 0 mm 3 mps 760 mmHg 60%
    09:00 +20°C° 0 mm 3 mps 760 mmHg 50%
    10:00 +22°C° 0 mm 3 mps 760 mmHg 39%
    11:00 +23°C° 0 mm 4 mps 760 mmHg 36%
    12:00 +25°C° 0 mm 4 mps 760 mmHg 33%
    13:00 +26°C° 0 mm 5 mps 760 mmHg 30%
    14:00 +26°C° 0 mm 5 mps 760 mmHg 32%
    15:00 +25°C° 0 mm 5 mps 759 mmHg 33%
    16:00 +25°C° 0 mm 5 mps 759 mmHg 35%
    17:00 +23°C° 0 mm 5 mps 759 mmHg 40%
    18:00 +21°C° 0 mm 4 mps 759 mmHg 44%
    19:00 +20°C° 0 mm 4 mps 759 mmHg 48%
    20:00 +18°C° 0 mm 4 mps 759 mmHg 54%
    21:00 +17°C° 0 mm 3 mps 759 mmHg 59%
    22:00 +16°C° 0 mm 3 mps 759 mmHg 65%
    23:00 +16°C° 0 mm 3 mps 759 mmHg 66%

    Day after tomorrow, 28 June, Friday

    Time Temperature Precipitation Wind Pressure Humidity
    00:00 +16°C° 0 mm 2 mps 759 mmHg 68%
    01:00 +16°C° 0 mm 2 mps 759 mmHg 69%
    02:00 +15°C° 0 mm 2 mps 759 mmHg 70%
    03:00 +15°C° 0 mm 2 mps 759 mmHg 71%
    04:00 +15°C° 0 mm 2 mps 759 mmHg 72%
    05:00 +16°C° 0 mm 2 mps 759 mmHg 69%
    06:00 +16°C° 0 mm 2 mps 759 mmHg 66%
    07:00 +17°C° 0 mm 2 mps 759 mmHg 63%
    08:00 +19°C° 0 mm 2 mps 759 mmHg 54%
    09:00 +21°C° 0 mm 2 mps 759 mmHg 46%
    10:00 +24°C° 0 mm 3 mps 759 mmHg 37%
    11:00 +25°C° 0 mm 3 mps 759 mmHg 33%
    12:00 +27°C° 0 mm 3 mps 759 mmHg 30%
    13:00 +28°C° 0 mm 4 mps 759 mmHg 26%
    14:00 +28°C° 0 mm 4 mps 759 mmHg 26%
    15:00 +28°C° 0 mm 4 mps 758 mmHg 27%
    16:00 +27°C° 0 mm 5 mps 758 mmHg 28%
    17:00 +26°C° 0 mm 4 mps 758 mmHg 33%
    18:00 +23°C° 0 mm 4 mps 758 mmHg 38%
    19:00 +21°C° 0 mm 4 mps 758 mmHg 43%
    20:00 +19°C° 0 mm 3 mps 759 mmHg 51%
    21:00 +17°C° 0 mm 3 mps 759 mmHg 59%
    22:00 +16°C° 0 mm 3 mps 759 mmHg 68%
    23:00 +14°C° 0 mm 3 mps 759 mmHg 71%

    29 June, Saturday

    Time Temperature Precipitation Wind Pressure Humidity
    00:00 +14°C° 0 mm 2 mps 759 mmHg 74%
    01:00 +14°C° 0 mm 2 mps 759 mmHg 77%
    02:00 +13°C° 0 mm 2 mps 759 mmHg 78%
    03:00 +13°C° 0 mm 2 mps 759 mmHg 80%
    04:00 +12°C° 0 mm 2 mps 758 mmHg 81%
    05:00 +14°C° 0 mm 1 mps 758 mmHg 75%
    06:00 +15°C° 0 mm 1 mps 759 mmHg 68%
    07:00 +18°C° 0 mm 1 mps 759 mmHg 61%
    08:00 +21°C° 0 mm 1 mps 759 mmHg 52%
    09:00 +23°C° 0 mm 1 mps 758 mmHg 43%
    10:00 +26°C° 0 mm 2 mps 758 mmHg 34%
    11:00 +27°C° 0 mm 2 mps 758 mmHg 31%
    12:00 +29°C° 0 mm 3 mps 758 mmHg 28%
    13:00 +30°C° 0 mm 4 mps 758 mmHg 24%
    14:00 +29°C° 0 mm 4 mps 757 mmHg 25%
    15:00 +29°C° 0 mm 4 mps 757 mmHg 26%
    16:00 +28°C° 0 mm 5 mps 757 mmHg 27%
    17:00 +26°C° 0 mm 4 mps 757 mmHg 34%
    18:00 +23°C° 0 mm 4 mps 757 mmHg 40%
    19:00 +21°C° 0 mm 4 mps 757 mmHg 46%
    20:00 +19°C° 0 mm 4 mps 758 mmHg 55%
    21:00 +17°C° 0 mm 3 mps 758 mmHg 63%
    22:00 +14°C° 0 mm 3 mps 758 mmHg 71%
    23:00 +14°C° 0 mm 3 mps 758 mmHg 75%

    30 June, Sunday

    Time Temperature Precipitation Wind Pressure Humidity
    00:00 +13°C° 0 mm 3 mps 758 mmHg 78%
    01:00 +13°C° 0 mm 3 mps 758 mmHg 81%
    02:00 +12°C° 0 mm 3 mps 758 mmHg 83%
    03:00 +12°C° 0 mm 3 mps 758 mmHg 85%
    04:00 +12°C° 0 mm 3 mps 758 mmHg 86%
    05:00 +13°C° 0 mm 3 mps 758 mmHg 82%
    06:00 +14°C° 0 mm 3 mps 758 mmHg 78%
    07:00 +16°C° 0 mm 3 mps 758 mmHg 73%
    08:00 +18°C° 0 mm 3 mps 758 mmHg 63%
    09:00 +21°C° 0 mm 3 mps 758 mmHg 53%
    10:00 +24°C° 0 mm 3 mps 758 mmHg 44%
    11:00 +25°C° 0 mm 4 mps 758 mmHg 41%
    12:00 +26°C° 0 mm 4 mps 758 mmHg 37%
    13:00 +28°C° 0 mm 5 mps 758 mmHg 34%
    14:00 +27°C° 0 mm 5 mps 758 mmHg 36%
    15:00 +27°C° 0 mm 5 mps 758 mmHg 38%
    16:00 +26°C° 0 mm 5 mps 757 mmHg 39%
    17:00 +23°C° 0 mm 5 mps 758 mmHg 47%
    18:00 +21°C° 0 mm 5 mps 758 mmHg 54%
    19:00 +19°C° 0 mm 5 mps 758 mmHg 62%
    20:00 +18°C° 0 mm 4 mps 758 mmHg 68%
    21:00 +17°C° 0 mm 4 mps 759 mmHg 75%
    22:00 +14°C° 0 mm 3 mps 759 mmHg 81%
    23:00 +14°C° 0 mm 3 mps 759 mmHg 83%

    1 July, Monday

    Time Temperature Precipitation Wind Pressure Humidity
    00:00 +13°C° 0 mm 3 mps 759 mmHg 85%
    01:00 +14°C° 0 mm 2 mps 758 mmHg 87%
    02:00 +14°C° 0 mm 2 mps 758 mmHg 88%
    03:00 +14°C° 0 mm 2 mps 758 mmHg 88%
    04:00 +13°C° 0 mm 2 mps 758 mmHg 89%
    05:00 +15°C° 0 mm 2 mps 758 mmHg 82%
    06:00 +16°C° 0 mm 2 mps 758 mmHg 76%
    07:00 +18°C° 0 mm 1 mps 758 mmHg 70%
    08:00 +20°C° 0 mm 2 mps 758 mmHg 60%
    09:00 +24°C° 0 mm 2 mps 758 mmHg 50%
    10:00 +26°C° 0 mm 2 mps 758 mmHg 41%
    11:00 +28°C° 0 mm 2 mps 758 mmHg 37%
    12:00 +29°C° 0 mm 3 mps 758 mmHg 33%
    13:00 +30°C° 0 mm 4 mps 758 mmHg 30%
    14:00 +30°C° 0 mm 4 mps 757 mmHg 30%
    15:00 +30°C° 0 mm 4 mps 757 mmHg 30%
    16:00 +30°C° 0 mm 5 mps 757 mmHg 30%
    17:00 +28°C° 0 mm 4 mps 756 mmHg 36%
    18:00 +25°C° 0 mm 4 mps 756 mmHg 42%
    19:00 +22°C° 0 mm 4 mps 756 mmHg 48%
    20:00 +20°C° 0 mm 4 mps 756 mmHg 56%
    21:00 +18°C° 0 mm 4 mps 757 mmHg 64%
    22:00 +16°C° 0 mm 3 mps 757 mmHg 71%
    23:00 +16°C° 0 mm 3 mps 757 mmHg 75%
    Show more